This is the latest recevied weather packets stored in our database for station/object N3FU-13. If no packets are shown the sender has not sent any weather packets the latest 10 day(s).
| Time | Temp. | Humidity | Pressure | Rain* | Wind** | Luminosity | Snow |
|---|---|---|---|---|---|---|---|
| 1777786030 | 20.56° C | 99% | 1014.5 hPa | 0 mm | - | - | - |
| 1777785130 | 21.11° C | 99% | 1014.5 hPa | 0 mm | - | - | - |
| 1777784230 | 21.11° C | 100% | 1014.5 hPa | 0 mm | - | - | - |
| 1777783537 | 21.11° C | 99% | 1014 hPa | 0 mm | - | - | - |
| 1777783330 | 21.11° C | 99% | 1014 hPa | 0 mm | - | - | - |
| 1777782430 | 21.67° C | 99% | 1014.2 hPa | 0.51 mm | - | - | - |
| 1777781530 | 21.67° C | 99% | 1014 hPa | 0.51 mm | - | - | - |
| 1777780630 | 21.67° C | 99% | 1014 hPa | 0.51 mm | - | - | - |
| 1777779730 | 21.67° C | 99% | 1013.7 hPa | 0.51 mm | - | - | - |
| 1777778830 | 21.67° C | 99% | 1013.5 hPa | 0.51 mm | - | - | - |
| 1777777930 | 21.67° C | 99% | 1013.2 hPa | 0.51 mm | - | - | - |
| 1777777460 | 22.22° C | 99% | 1012.9 hPa | 0.51 mm | - | - | - |
| 1777777030 | 22.22° C | 99% | 1012.9 hPa | 0.51 mm | - | - | - |
| 1777776130 | 22.22° C | 99% | 1012.7 hPa | 0.51 mm | - | - | - |
| 1777775230 | 22.22° C | 99% | 1012.8 hPa | 0.25 mm | - | - | - |
| 1777774330 | 22.22° C | 99% | 1012.6 hPa | 0 mm | - | - | - |
| 1777773430 | 22.22° C | 99% | 1012.6 hPa | 0 mm | - | - | - |
| 1777768030 | 21.67° C | 99% | 1011.3 hPa | 0 mm | - | - | - |
| 1777767130 | 22.22° C | 99% | 1011.3 hPa | 0 mm | - | - | - |
| 1777766230 | 22.22° C | 99% | 1010.7 hPa | 0 mm | - | - | - |
| 1777761392 | 22.78° C | 98% | 1010.9 hPa | 1.27 mm | - | - | - |
| 1777760830 | 22.78° C | 98% | 1010.9 hPa | 1.27 mm | - | - | - |
| 1777757231 | 22.78° C | 98% | 1010.1 hPa | 1.78 mm | - | - | - |
| 1777756331 | 22.78° C | 98% | 1009.7 hPa | 1.52 mm | - | - | - |
| 1777755431 | 22.78° C | 97% | 1010.1 hPa | 0.76 mm | - | - | - |
* Rain latest hour (hover to see other rain measurements)
** Current wind speed in m/s (hover to see current wind gust speed)